Regional Weather Roundup
Issued by NWS Wakefield, VA

Home | Current Version | Previous Version | Text Only | Print | Product List | Glossary Off
Versions: 1 2 3 4 5 6 7 8 9 10 11 12 13 14 15 16 17 18 19 20 21 22 23 24 25 26 27 28 29 30 31 32 33 34 35 36 37 38 39 40 41 42 43 44 45 46 47 48 49 50

815
ASUS41 KAKQ 270115
RWRAKQ

REGIONAL WEATHER ROUNDUP
NATIONAL WEATHER SERVICE WAKEFIELD VA
900 PM EDT MON SEP 26 2016

Note: "fair" indicates few or no clouds below 12,000 feet with no
significant weather and/or obstructions to visibility. * = Denotes
station may not report precipitation (e.g., rain,snow,etc.),
thunder or fog.

VAZ042-051-052>054-056-270200-
NORTHERN VIRGINIA

CITY           SKY/WX    TMP DP  RH WIND       PRES   REMARKS
WASH NATIONAL  HVY RAIN  67  63  87 S13       30.02F FOG
DULLES         CLOUDY    65  61  87 S10       30.01F
FORT BELVOIR   RAIN      67  60  78 SE5       30.02F
QUANTICO       LGT RAIN  68  62  81 SW12      30.04R
FREDERICKSBRG* RAIN      67  64  92 S6        30.04R
STAFFORD*      TSTM      64  63  96 SE8       30.07F
WARRENTON      LGT RAIN  65  59  82 S3        30.00F
CULPEPER*      LGT RAIN  65  64  97 S5        30.02F
MANASSAS*      CLOUDY    64  63  94 CALM      30.01F
LEESBURG*      RAIN      64  64 100 S9        30.01F
WINCHESTER     CLOUDY    64  63  94 S7        29.97F
FRONT ROYAL*   MOCLDY    64  63  94 CALM      29.96F
LURAY*         FAIR     N/A N/A N/A SW9       30.00R
$$

VAZ048-049-060>072-079>083-270200-
CENTRAL AND SOUTH CENTRAL VIRGINIA

CITY           SKY/WX    TMP DP  RH WIND       PRES   REMARKS
RICHMOND       CLOUDY    68  63  84 S6        30.04S
CHESTERFIELD*  CLOUDY    70  52  52 S7        30.05S
PETERSBURG*    CLOUDY    70  65  85 SE3       30.05S
HANOVER        CLOUDY    69  61  75 VRB3      30.06R
TAPPAHANNOCK*  CLOUDY    68  62  80 CALM      30.05S
QUINTON*       CLOUDY    69  63  82 CALM      30.04S
CHARLOTTSVILLE CLOUDY    66  63  90 CALM      30.02F
GORDONSVILLE*  NOT AVBL
ORANGE*          N/A     64  64 100 CALM      30.04S
LOUISA*        CLOUDY    70  66  88 SE5       30.02F
BUMPASS*       CLOUDY    66  64  91 CALM      30.04S
FARMVILLE*     CLOUDY    69  65  88 CALM      30.03F
CREWE*         CLOUDY    69  69 100 CALM      30.05R
FORT PICKETT*  CLOUDY    68  67  97 S3        30.05S
CHASE CITY*    CLOUDY    67  66  94 CALM      30.05R
CLARKSVILLE*   CLOUDY    68  68 100 CALM      30.04S
SOUTH HILL*    MOCLDY    66  65  96 S5        30.10F
LAWRENCEVILLE* MOCLDY    68  65  90 CALM      30.05S
EMPORIA*       CLOUDY    68  64  88 SE5       30.07S
$$

VAZ088>098-270200-
SOUTHEAST VIRGINIA

CITY           SKY/WX    TMP DP  RH WIND       PRES   REMARKS
NORFOLK        CLOUDY    72  65  78 S5        30.06R
VIRGINIA BEACH CLOUDY    72  64  76 CALM      30.06R
NORFOLK NAVAL  CLOUDY    73  65  75 S3        30.07S
WEST POINT*    CLOUDY    72  61  68 SE5       30.06S
SALUDA*        CLOUDY    69  63  79 S5        30.04S
NEWPORT NEWS   CLOUDY    73  64  73 S7        30.05S
LANGLEY AFB    CLOUDY    73  65  76 S7        30.05S
FORT EUSTIS    CLOUDY    73  65  76 S7        30.03S
WILLIAMSBURG*  PTCLDY    73  64  73 S8        30.06R
HR EXEC AP*    CLOUDY    70  64  83 CALM      30.08S
FRANKLIN*      CLOUDY    70  63  78 SE6       30.06S
US460-WAKEFLD  CLOUDY    70  62  76 S3        30.06R
$$

VAZ020-022-025-037-045-270200-
WEST CENTRAL AND SOUTHWEST VIRGINIA

CITY           SKY/WX    TMP DP  RH WIND       PRES   REMARKS
STAUNTON*      PTCLDY    63  62  98 S5        30.03F FOG
WAYNESBORO*    FAIR      63  62  96 CALM      30.03S
HOT SPRINGS VA CLOUDY    51  51 100 SW6       30.10S
LYNCHBURG      TSTM      65  65 100 S7        30.07S
DANVILLE       LGT RAIN  69  67  93 VRB6      30.04S
SOUTH BOSTON*  CLOUDY    66  64  95 E3        30.04S
MARTINSVILLE   CLOUDY    66  65  96 CALM      30.07S
ROANOKE        CLOUDY    67  67 100 SE5       30.07R
BLACKSBURG     CLOUDY    66  66  99 CALM      30.10S FOG
DUBLIN*        CLOUDY    68  67  98 CALM      30.08F
MARION*        CLOUDY    64  63  96 W5        30.12S
HILLSVILLE*    PTCLDY    64  64 100 CALM      30.08S
RICHLANDS*     MOCLDY    67  65  94 SW3       30.10S
WISE*          CLOUDY    68  64  88 CALM      30.11S
ABINGDON*      CLOUDY    68  67  94 W3        30.09S
$$

MDZ021>025-VAZ099-100-270200-
SOUTHERN MARYLAND AND THE DELMARVA PENINSULA

CITY           SKY/WX    TMP DP  RH WIND       PRES   REMARKS
PATUXENT RIVER CLOUDY    70  59  68 SE3       30.04S
BAY BRIDGE APT CLOUDY    70  57  64 MISG      30.04S
LEONARDTOWN    CLOUDY    68  57  68 SE3       30.06S
DOVER          CLOUDY    68  62  79 SE8       30.03F
GEORGETOWN     CLOUDY    68  61  78 S6        30.06S
EASTON         CLOUDY    68  55  64 SE6       30.08S
CAMBRIDGE      CLOUDY    64  59  82 CALM      30.05S
SALISBURY      CLOUDY    67  62  84 SE3       30.05F
OCEAN CITY     CLOUDY    74  64  71 S9        30.06S
WALLOPS ISLAND CLOUDY    73  67  81 S12       30.06S
ACCOMACK*      CLOUDY    70  65  84 CALM      30.06S
$$

NCZ012>017-030>032-270200-
NORTH CENTRAL AND EASTERN NORTH CAROLINA

CITY           SKY/WX    TMP DP  RH WIND       PRES   REMARKS
ROANOKE RAPIDS FAIR      70  64  83 CALM      30.06R
RALEIGH        MOCLDY    72  67  84 VRB5      30.05S
ELIZABETH CITY CLOUDY    73  65  75 S7        30.07R
AHOSKIE*       PTCLDY    69  65  88 CALM      30.07S
EDENTON*       CLOUDY    75  65  70 S7        30.07S
CURRITUCK*     CLOUDY    73  66  77 S5        30.07S
KILL DEVIL HLS PTCLDY    73  67  83 CALM      30.07R
MANTEO         PTCLDY    76  64  67 S9        30.08R
CAPE HATTERAS  CLEAR     78  67  68 SE12      30.08R
TARBORO*       MOCLDY    71  65  83 CALM      30.07R
GOLDSBORO      CLEAR     73  70  90 SE2       30.05R
WASHINGTON     CLEAR     70  66  88 CALM      30.07S
GREENVILLE     CLEAR     72  66  83 CALM      30.08R
NEW BERN       CLOUDY    73  67  81 SE3       30.08R
WILMINGTON     CLEAR     73  68  84 E3        30.06R
$$

VAZ048-270200-
ELSEWHERE

CITY           SKY/WX    TMP DP  RH WIND       PRES   REMARKS
HARRISBURG PA  CLOUDY    66  59  78 SE5       29.99F
BALTIMORE      CLOUDY    68  57  68 S5        30.02F
ANNAPOLIS      CLOUDY    71  58  63 S12       30.03S
ANDREWS AFB    CLOUDY    66  58  74 S5        30.03S
PHILADELPHIA   CLOUDY    69  57  65 S7        30.05S
HENDERSON NC   PTCLDY    67  62  84 S6        30.05R
GREENSBORO     LGT RAIN  68  68 100 S7        30.05S
ROCKY MOUNT    CLOUDY    71  67  87 CALM      30.06R
$$

VAZ100-270200-
MARINE

STATION/POSITION TIME  TEMP    WIND        PRES    WAVE   SWELL
                       AIR SEA DIR/SP/G            HT/PER HT/PER
                 (UTC) (F)     (DEG/KT/KT) (MB)    (FT/S) (FT/S)
BRANDYWINE LGT   0000   71     200/ 18/ 19   N/A
CAPE MAY NJ      0000   71 72  180/  9/ 13 1017.4R
LEWES DE         0000   71 73  200/  4/  8 1017.5R
OCEAN-CITY-INLET 0000   73 73  200/ 12/ 17 1018.3R
WACHAPREAGUE VA  0000   73 74  180/  8/ 12 1017.5R
THOMAS POINT MD  0100   72 74  180/ 17/ 19 1018.0F
GOOSES REEF MD   0100   73 74  210/ 14/ 16 1017.3F   2/ 3
COVE POINT MD    0000   71     200/ 12/ 14 1017.8R
SOLOMONS ISLAND  0000   72 76  180/  7/  8   N/A
BISHOPS HEAD MD  0000   72 70  180/ 13/ 16 1017.7R
PINEY POINT MD   0000          190/  8/ 10   N/A
POTOMAC MD       0100   72 75  210/ 10/ 12 1016.4F   1/ 3
CAMBRIDGE MD     0000   69 75  120/  2/  4 1016.7R
LEWISETTA VA     0000   71 74  200/  4/  4 1016.9R
RAPPAHANNOCK LGT 0000          180/ 10/ 12 1018.2R
STINGRAY PT      0000   74 76  140/ 10/ 14 1017.9R   2/ 3
YORK RVR RNG VA  0000   73     190/ 11/ 13 1017.1R
YORKTOWN VA      0000   72 77  170/  2/  4 1017.3R
JAMESTOWN VA     0100   72 77  160/  8/ 10   N/A     0
DOMINION TERM VA 0000   73     170/  5/  7 1017.8R
KIPTOPEKE VA     0000      76  190/ 11/ 12   N/A
CHES BAY BRIDGE  0000   73 76  160/  8/ 10 1017.6R
CAPE HENRY VA    0000   72     180/  4/  6   N/A
WILLOUBY STN VA  0000   73      70/  2/  4   N/A
CAPE HENRY BUOY  0012      76                N/A     3/ 8
1ST LANDING BUOY 0100   74 76  210/ 10/ 10 1017.8R   1/ 4
CAPE CHARLES BUO 0026      76                N/A     3/ 9
OFFSHORE WE BUOY 0021      75                N/A     3/ 8
64NM E OF VA BCH 0050   76 75  170/ 14/ 17 1018.3R   4/ 4   2/ 8
DUCK PIER NC     0000   75 77  170/  9/ 10 1017.5R
44056 DUCK FRF   0011      77                N/A     3/ 8
OREGON INLET NC  0000   75 77  150/  6/  9 1018.1R
HATTERAS NC      0000   78 78  160/  8/ 10 1018.1R
DIAMOND SHLS NC  0050   79 81  140/ 14/ 17 1018.2R   3/ 7   2/ 7
CAPE LOOKOUT NC  0000   78     130/  9/ 10 1017.6R
$$




USA.gov is the U.S. government's official web portal to all federal, state and local government web resources and services.